This is the latest recevied weather packets stored in our database for station/object OK1KKY-18. If no packets are shown the sender has not sent any weather packets the latest 10 day(s).
| Time | Temp. | Humidity | Pressure | Rain* | Wind** | Luminosity | Snow |
|---|---|---|---|---|---|---|---|
| 1778166977 | 14.44° C | 62% | 1012.9 hPa | - | - | - | - |
| 1778166367 | 14.44° C | 61% | 1013 hPa | - | - | - | - |
| 1778165768 | 14.44° C | 65% | 1012.9 hPa | - | - | - | - |
| 1778165167 | 13.89° C | 66% | 1013 hPa | - | - | - | - |
| 1778164571 | 14.44° C | 64% | 1012.9 hPa | - | - | - | - |
| 1778163966 | 13.89° C | 64% | 1012.9 hPa | - | - | - | - |
| 1778163366 | 13.89° C | 63% | 1013.1 hPa | - | - | - | - |
| 1778162766 | 13.89° C | 64% | 1012.9 hPa | - | - | - | - |
| 1778162166 | 13.89° C | 69% | 1012.9 hPa | - | - | - | - |
| 1778161566 | 13.89° C | 68% | 1012.9 hPa | - | - | - | - |
| 1778160966 | 13.89° C | 68% | 1012.9 hPa | - | - | - | - |
| 1778160367 | 13.89° C | 69% | 1012.9 hPa | - | - | - | - |
| 1778159766 | 13.89° C | 67% | 1012.8 hPa | - | - | - | - |
| 1778159166 | 14.44° C | 69% | 1012.8 hPa | - | - | - | - |
| 1778158566 | 14.44° C | 70% | 1012.8 hPa | - | - | - | - |
| 1778157966 | 13.89° C | 67% | 1012.6 hPa | - | - | - | - |
| 1778157366 | 15° C | 64% | 1012.5 hPa | - | - | - | - |
| 1778156767 | 15° C | 64% | 1012.5 hPa | - | - | - | - |
| 1778156166 | 15° C | 63% | 1012.3 hPa | - | - | - | - |
| 1778155566 | 15.56° C | 65% | 1012.2 hPa | - | - | - | - |
| 1778154966 | 15° C | 69% | 1012.3 hPa | - | - | - | - |
| 1778154366 | 14.44° C | 68% | 1012.2 hPa | - | - | - | - |
| 1778153766 | 14.44° C | 69% | 1012.2 hPa | - | - | - | - |
| 1778153166 | 14.44° C | 68% | 1012.2 hPa | - | - | - | - |
| 1778152566 | 14.44° C | 68% | 1012.1 hPa | - | - | - | - |
* Rain since midnight (hover to see other rain measurements)
** Current wind speed in m/s (hover to see current wind gust speed)